N414BC KSFB-KSAV

Flight info

Callsign N414BC
Flight time 0h 43m
Altitude 31000
Route WORMS GUANO BKENI VIYAP
Aircraft B738/M-SDE2E3FGHIRWXY/LB1

Departure

Time 2026-05-07 22:38
Airport Orlando Sanford International Airport (KSFB)

Arrival

Time 2026-05-07 23:21
Airport Savannah Hilton Head International Airport (KSAV)
Time Latitude Longitude Altitude Speed Heading
2026-05-07 22:07 28.77690 -81.24963 63 ft 0 kts 360°
2026-05-07 22:27 28.77691 -81.24962 63 ft 1 kts
2026-05-07 22:28 28.77704 -81.24938 59 ft 6 kts 70°
2026-05-07 22:28 28.77715 -81.24893 63 ft 6 kts 77°
2026-05-07 22:28 28.77722 -81.24846 61 ft 6 kts 77°
2026-05-07 22:28 28.77736 -81.24802 56 ft 6 kts 67°
2026-05-07 22:29 28.77752 -81.24759 58 ft 6 kts 67°
2026-05-07 22:29 28.77760 -81.24714 60 ft 6 kts 84°
2026-05-07 22:29 28.77763 -81.24658 63 ft 10 kts 90°
2026-05-07 22:29 28.77763 -81.24575 63 ft 11 kts 89°
2026-05-07 22:30 28.77763 -81.24491 63 ft 10 kts 90°
2026-05-07 22:30 28.77763 -81.24410 63 ft 10 kts 90°
2026-05-07 22:30 28.77764 -81.24331 63 ft 10 kts 90°
2026-05-07 22:30 28.77764 -81.24254 63 ft 10 kts 90°
2026-05-07 22:31 28.77764 -81.24179 63 ft 9 kts 90°
2026-05-07 22:31 28.77763 -81.24106 63 ft 9 kts 90°
2026-05-07 22:31 28.77763 -81.24031 63 ft 10 kts 90°
2026-05-07 22:31 28.77769 -81.23949 63 ft 11 kts 89°
2026-05-07 22:32 28.77763 -81.23862 63 ft 12 kts 88°
2026-05-07 22:32 28.77764 -81.23755 63 ft 15 kts 90°
2026-05-07 22:32 28.77765 -81.23628 63 ft 17 kts 90°
2026-05-07 22:32 28.77783 -81.23484 60 ft 15 kts 36°
2026-05-07 22:33 28.77847 -81.23409 63 ft 15 kts 85°
2026-05-07 22:33 28.77847 -81.23288 59 ft 17 kts 89°
2026-05-07 22:33 28.77847 -81.23131 63 ft 22 kts 89°
2026-05-07 22:33 28.77847 -81.22947 63 ft 23 kts 90°
2026-05-07 22:34 28.77879 -81.22804 59 ft 19 kts 23°
2026-05-07 22:34 28.78002 -81.22785 60 ft 17 kts 37°
2026-05-07 22:34 28.78013 -81.22668 63 ft 15 kts 89°
2026-05-07 22:34 28.78013 -81.22552 63 ft 14 kts 90°
2026-05-07 22:35 28.78014 -81.22441 62 ft 14 kts 90°
2026-05-07 22:35 28.78013 -81.22336 63 ft 13 kts 90°
2026-05-07 22:35 28.78013 -81.22234 59 ft 13 kts 88°
2026-05-07 22:35 28.78050 -81.22175 62 ft 4 kts 15°
2026-05-07 22:36 28.78052 -81.22175 61 ft 0 kts 12°
2026-05-07 22:36 28.78057 -81.22174 62 ft 3 kts
2026-05-07 22:36 28.78125 -81.22173 63 ft 18 kts
2026-05-07 22:36 28.78177 -81.22248 62 ft 0 kts 270°
2026-05-07 22:37 28.78178 -81.22404 64 ft 52 kts 270°
2026-05-07 22:37 28.78176 -81.23059 60 ft 111 kts 270°
2026-05-07 22:37 28.78176 -81.24089 209 ft 140 kts 267°
2026-05-07 22:37 28.78166 -81.25284 516 ft 158 kts 269°
2026-05-07 22:38 28.78154 -81.26565 937 ft 169 kts 268°
2026-05-07 22:38 28.78127 -81.27923 1404 ft 173 kts 268°
2026-05-07 22:38 28.78091 -81.29278 1906 ft 179 kts 268°
2026-05-07 22:38 28.78071 -81.30857 1994 ft 219 kts 276°
2026-05-07 22:39 28.78787 -81.32510 2025 ft 253 kts 314°
2026-05-07 22:39 28.80375 -81.33417 2020 ft 264 kts 351°
2026-05-07 22:39 28.82217 -81.33307 2292 ft 268 kts
2026-05-07 22:39 28.84034 -81.33541 3196 ft 257 kts 342°
2026-05-07 22:40 28.85798 -81.34031 3881 ft 266 kts 344°
2026-05-07 22:40 28.87629 -81.34511 4560 ft 273 kts 343°
2026-05-07 22:40 28.89469 -81.34987 5317 ft 274 kts 344°
2026-05-07 22:40 28.91331 -81.35464 6135 ft 273 kts 345°
2026-05-07 22:41 28.93179 -81.35937 6953 ft 274 kts 344°
2026-05-07 22:41 28.95057 -81.36415 7648 ft 278 kts 343°
2026-05-07 22:41 28.96971 -81.36902 8340 ft 284 kts 343°
2026-05-07 22:41 28.98908 -81.37393 9133 ft 286 kts 343°
2026-05-07 22:42 29.00857 -81.37888 9920 ft 289 kts 342°
2026-05-07 22:42 29.02886 -81.38271 10438 ft 306 kts 349°
2026-05-07 22:42 29.05103 -81.38481 10609 ft 331 kts 351°
2026-05-07 22:42 29.07468 -81.38684 10951 ft 346 kts 351°
2026-05-07 22:43 29.09860 -81.38893 11561 ft 352 kts 352°
2026-05-07 22:43 29.12335 -81.38852 12293 ft 357 kts 359°
2026-05-07 22:43 29.14837 -81.38649 12980 ft 363 kts 360°
2026-05-07 22:43 29.17375 -81.38411 13656 ft 368 kts 360°
2026-05-07 22:44 29.19943 -81.38171 14314 ft 372 kts 359°
2026-05-07 22:44 29.22530 -81.37938 15048 ft 373 kts 359°
2026-05-07 22:44 29.25119 -81.37714 15821 ft 374 kts 358°
2026-05-07 22:44 29.27724 -81.37497 16562 ft 376 kts 358°
2026-05-07 22:45 29.30339 -81.37284 17293 ft 378 kts 357°
2026-05-07 22:45 29.32947 -81.37075 18021 ft 380 kts 357°
2026-05-07 22:45 29.35603 -81.36863 18658 ft 382 kts 356°
2026-05-07 22:45 29.38270 -81.36651 19205 ft 387 kts 356°
2026-05-07 22:46 29.40949 -81.36438 19718 ft 392 kts 356°
2026-05-07 22:46 29.43687 -81.36220 20241 ft 396 kts 356°
2026-05-07 22:46 29.46455 -81.35999 20779 ft 400 kts 356°
2026-05-07 22:46 29.49252 -81.35774 21307 ft 404 kts 356°
2026-05-07 22:47 29.52074 -81.35547 21833 ft 408 kts 356°
2026-05-07 22:47 29.54932 -81.35316 22365 ft 412 kts 356°
2026-05-07 22:47 29.57802 -81.35085 22880 ft 415 kts 356°
2026-05-07 22:47 29.60703 -81.34852 23369 ft 419 kts 355°
2026-05-07 22:48 29.63584 -81.34627 23778 ft 422 kts 355°
2026-05-07 22:48 29.66520 -81.34602 24179 ft 420 kts 350°
2026-05-07 22:48 29.69444 -81.34744 24598 ft 420 kts 348°
2026-05-07 22:48 29.72372 -81.34941 25008 ft 422 kts 348°
2026-05-07 22:49 29.75322 -81.35151 25396 ft 425 kts 348°
2026-05-07 22:49 29.78244 -81.35351 25784 ft 428 kts 348°
2026-05-07 22:49 29.81230 -81.35542 26171 ft 431 kts 348°
2026-05-07 22:49 29.84232 -81.35723 26594 ft 433 kts 348°
2026-05-07 22:50 29.87242 -81.35896 27037 ft 433 kts 348°
2026-05-07 22:50 29.90265 -81.36065 27409 ft 436 kts 348°
2026-05-07 22:50 29.93311 -81.36233 27740 ft 439 kts 348°
2026-05-07 22:50 29.96376 -81.36403 28062 ft 442 kts 348°
2026-05-07 22:51 29.99464 -81.36573 28409 ft 445 kts 348°
2026-05-07 22:51 30.02560 -81.36743 28737 ft 447 kts 348°
2026-05-07 22:51 30.05677 -81.36915 29066 ft 449 kts 348°
2026-05-07 22:51 30.08810 -81.37087 29397 ft 451 kts 348°
2026-05-07 22:52 30.11913 -81.37257 29868 ft 451 kts 347°
2026-05-07 22:52 30.15030 -81.37424 30478 ft 444 kts 347°
2026-05-07 22:52 30.18109 -81.37588 30882 ft 443 kts 347°
2026-05-07 22:53 30.24273 -81.37931 30937 ft 442 kts 347°
2026-05-07 22:53 30.30420 -81.38275 30941 ft 441 kts 347°
2026-05-07 22:54 30.36527 -81.38617 30939 ft 441 kts 347°
2026-05-07 22:54 30.42670 -81.38960 30933 ft 441 kts 347°
2026-05-07 22:55 30.48803 -81.39302 30938 ft 441 kts 347°
2026-05-07 22:55 30.54942 -81.39645 30955 ft 441 kts 347°
2026-05-07 22:56 30.61047 -81.39986 30954 ft 441 kts 347°
2026-05-07 22:56 30.67201 -81.40332 30660 ft 445 kts 347°
2026-05-07 22:56 30.70277 -81.40508 29980 ft 447 kts 348°
2026-05-07 22:57 30.73398 -81.40684 29142 ft 448 kts 348°
2026-05-07 22:57 30.76495 -81.40854 28501 ft 443 kts 348°
2026-05-07 22:57 30.79563 -81.41022 27857 ft 439 kts 348°
2026-05-07 22:57 30.82609 -81.41189 27232 ft 435 kts 348°
2026-05-07 22:58 30.85595 -81.41356 26613 ft 432 kts 348°
2026-05-07 22:58 30.88592 -81.41524 25990 ft 429 kts 348°
2026-05-07 22:58 30.91573 -81.41692 25373 ft 426 kts 348°
2026-05-07 22:58 30.94520 -81.41859 24754 ft 423 kts 348°
2026-05-07 22:59 30.97463 -81.42028 24135 ft 422 kts 349°
2026-05-07 22:59 31.00381 -81.42193 23502 ft 417 kts 349°
2026-05-07 22:59 31.03247 -81.42351 22797 ft 408 kts 349°
2026-05-07 22:59 31.06050 -81.42505 22168 ft 399 kts 349°
2026-05-07 23:00 31.08790 -81.42658 21569 ft 390 kts 348°
2026-05-07 23:00 31.11438 -81.42808 21004 ft 382 kts 348°
2026-05-07 23:00 31.14071 -81.42959 20447 ft 375 kts 348°
2026-05-07 23:00 31.16660 -81.43108 19898 ft 369 kts 348°
2026-05-07 23:01 31.19234 -81.43046 19356 ft 370 kts 354°
2026-05-07 23:01 31.21801 -81.42860 18800 ft 368 kts 354°
2026-05-07 23:01 31.24354 -81.42679 18252 ft 366 kts 354°
2026-05-07 23:01 31.26902 -81.42517 17616 ft 369 kts 354°
2026-05-07 23:02 31.29488 -81.42373 17079 ft 374 kts 354°
2026-05-07 23:02 31.32062 -81.42243 16595 ft 373 kts 354°
2026-05-07 23:02 31.34630 -81.42116 16110 ft 363 kts 354°
2026-05-07 23:02 31.37122 -81.41989 15616 ft 354 kts 354°
2026-05-07 23:03 31.39555 -81.41864 15158 ft 346 kts 354°
2026-05-07 23:03 31.41143 -81.41783 14855 ft 343 kts 354°
2026-05-07 23:03 31.43544 -81.41669 14410 ft 346 kts 354°
2026-05-07 23:03 31.45967 -81.41567 13963 ft 353 kts 354°
2026-05-07 23:04 31.48447 -81.41478 13468 ft 358 kts 354°
2026-05-07 23:04 31.50946 -81.41401 12960 ft 357 kts 354°
2026-05-07 23:04 31.53424 -81.41329 12507 ft 353 kts 354°
2026-05-07 23:04 31.55872 -81.41263 12059 ft 349 kts 354°
2026-05-07 23:05 31.58288 -81.41186 11612 ft 347 kts 356°
2026-05-07 23:05 31.60669 -81.41007 11187 ft 344 kts 356°
2026-05-07 23:05 31.63055 -81.40849 10747 ft 341 kts 356°
2026-05-07 23:05 31.65395 -81.40698 10627 ft 329 kts 356°
2026-05-07 23:06 31.67644 -81.40405 10464 ft 327 kts
2026-05-07 23:06 31.69660 -81.39234 10344 ft 331 kts 33°
2026-05-07 23:06 31.71209 -81.37238 10236 ft 330 kts 50°
2026-05-07 23:06 31.72490 -81.35033 10098 ft 323 kts 52°
2026-05-07 23:07 31.73709 -81.32847 9946 ft 317 kts 52°
2026-05-07 23:07 31.74907 -81.30681 9727 ft 316 kts 52°
2026-05-07 23:07 31.76110 -81.28504 9491 ft 317 kts 52°
2026-05-07 23:07 31.77302 -81.26349 9178 ft 320 kts 53°
2026-05-07 23:08 31.78518 -81.24147 8827 ft 320 kts 52°
2026-05-07 23:08 31.79721 -81.21950 8505 ft 318 kts 52°
2026-05-07 23:08 31.80913 -81.19764 8136 ft 318 kts 52°
2026-05-07 23:08 31.82111 -81.17566 7727 ft 317 kts 52°
2026-05-07 23:09 31.83294 -81.15388 7372 ft 313 kts 52°
2026-05-07 23:09 31.84456 -81.13243 7002 ft 309 kts 52°
2026-05-07 23:09 31.85592 -81.11143 6654 ft 306 kts 52°
2026-05-07 23:09 31.86732 -81.09032 6312 ft 304 kts 52°
2026-05-07 23:10 31.87869 -81.06929 5896 ft 304 kts 52°
2026-05-07 23:10 31.89007 -81.04822 5466 ft 305 kts 53°
2026-05-07 23:10 31.90155 -81.02712 5086 ft 306 kts 53°
2026-05-07 23:10 31.91302 -81.00625 5014 ft 301 kts 52°
2026-05-07 23:11 31.92423 -80.98586 4954 ft 300 kts 52°
2026-05-07 23:11 31.93578 -80.96492 4482 ft 305 kts 53°
2026-05-07 23:11 31.94733 -80.94419 4260 ft 299 kts 53°
2026-05-07 23:11 31.95861 -80.92412 4082 ft 290 kts 52°
2026-05-07 23:12 31.96988 -80.90428 3737 ft 290 kts 52°
2026-05-07 23:12 31.98222 -80.88558 3473 ft 285 kts 36°
2026-05-07 23:12 31.99886 -80.87480 3239 ft 270 kts
2026-05-07 23:12 32.01718 -80.87243 3023 ft 263 kts 354°
2026-05-07 23:13 32.03543 -80.87210 2789 ft 259 kts 353°
2026-05-07 23:13 32.05339 -80.87242 2601 ft 256 kts 347°
2026-05-07 23:13 32.06934 -80.87943 2537 ft 239 kts 318°
2026-05-07 23:13 32.08089 -80.89254 2522 ft 229 kts 301°
2026-05-07 23:14 32.08997 -80.90757 2505 ft 221 kts 300°
2026-05-07 23:14 32.09867 -80.92198 2492 ft 210 kts 300°
2026-05-07 23:14 32.10698 -80.93565 2493 ft 201 kts 300°
2026-05-07 23:14 32.11503 -80.94885 2491 ft 195 kts 299°
2026-05-07 23:15 32.12271 -80.96172 2493 ft 186 kts 293°
2026-05-07 23:15 32.12552 -80.97544 2465 ft 164 kts 268°
2026-05-07 23:15 32.12606 -80.98814 2383 ft 149 kts 270°
2026-05-07 23:15 32.12653 -80.99979 2299 ft 137 kts 269°
2026-05-07 23:16 32.12680 -81.01102 2275 ft 137 kts 268°
2026-05-07 23:16 32.12699 -81.02215 2202 ft 134 kts 268°
2026-05-07 23:16 32.12711 -81.03308 2154 ft 133 kts 268°
2026-05-07 23:16 32.12721 -81.04419 2084 ft 137 kts 268°
2026-05-07 23:17 32.12731 -81.05546 2014 ft 137 kts 269°
2026-05-07 23:17 32.12741 -81.06673 1958 ft 137 kts 268°
2026-05-07 23:17 32.12750 -81.07785 1880 ft 136 kts 268°
2026-05-07 23:17 32.12759 -81.08885 1782 ft 132 kts 268°
2026-05-07 23:18 32.12768 -81.09926 1644 ft 118 kts 268°
2026-05-07 23:18 32.12777 -81.10854 1462 ft 109 kts 266°
2026-05-07 23:18 32.12783 -81.11768 1330 ft 114 kts 265°
2026-05-07 23:18 32.12791 -81.12706 1171 ft 114 kts 266°
2026-05-07 23:19 32.12798 -81.13611 1032 ft 110 kts 267°
2026-05-07 23:19 32.12812 -81.14543 879 ft 114 kts 268°
2026-05-07 23:19 32.12816 -81.15485 748 ft 118 kts 268°
2026-05-07 23:19 32.12836 -81.16484 600 ft 119 kts 266°
2026-05-07 23:20 32.12838 -81.17427 432 ft 111 kts 265°
2026-05-07 23:20 32.12846 -81.18354 230 ft 117 kts 266°
2026-05-07 23:20 32.12852 -81.19310 66 ft 110 kts 266°
2026-05-07 23:20 32.12857 -81.20105 41 ft 77 kts 272°
2026-05-07 23:21 32.12865 -81.20647 42 ft 57 kts 270°
2026-05-07 23:21 32.12868 -81.20975 41 ft 30 kts 271°
2026-05-07 23:21 32.12774 -81.21057 48 ft 16 kts 136°
2026-05-07 23:21 32.12758 -81.20933 49 ft 15 kts 90°
2026-05-07 23:22 32.12758 -81.20811 49 ft 15 kts 90°
2026-05-07 23:22 32.12756 -81.20688 49 ft 15 kts 91°
2026-05-07 23:22 32.12755 -81.20565 49 ft 15 kts 90°
2026-05-07 23:22 32.12754 -81.20447 48 ft 14 kts 92°
2026-05-07 23:23 32.12753 -81.20334 48 ft 13 kts 90°
2026-05-07 23:23 32.12752 -81.20227 48 ft 13 kts 90°
2026-05-07 23:23 32.12751 -81.20119 46 ft 14 kts 91°
2026-05-07 23:23 32.12739 -81.19968 42 ft 23 kts 108°
2026-05-07 23:24 32.12669 -81.19818 51 ft 20 kts 161°
2026-05-07 23:24 32.12532 -81.19812 52 ft 19 kts 179°
2026-05-07 23:24 32.12401 -81.19811 47 ft 19 kts 180°
2026-05-07 23:24 32.12272 -81.19811 52 ft 18 kts 179°
2026-05-07 23:25 32.12148 -81.19809 52 ft 18 kts 179°
2026-05-07 23:25 32.12127 -81.19738 52 ft 12 kts 60°
2026-05-07 23:25 32.12177 -81.19681 53 ft 9 kts 342°
2026-05-07 23:25 32.12185 -81.19697 53 ft 0 kts 270°